Location: D�derode
(51.8092°N, 10.1065°E)
Time: 05:39:31
(UTC+00:00)

H-2A R/B - Pass Details

Date: 01 December 2020
Orbit: 499 x 540 km, 97.3° (Epoch: 22 January)

Event Time Altitude Azimuth Distance (km) Brightness Sun altitude
Rises 16:26:16 0° 182° (S) 2,664 6.7 -10.8°
Reaches altitude 10° 16:28:27 10° 190° (S) 1,785 5.9 -11.1°
Maximum altitude 16:32:08 42° 262° (W) 775 4.2 -11.7°
Drops below altitude 10° 16:35:53 10° 335° (NNW) 1,814 5.5 -12.2°
Sets 16:38:06 0° 342° (NNW) 2,714 6.3 -12.5°
